Location: Seattle
(47.6064°N, 122.3308°W)
Time: 02:48:23
(UTC-08:00)

A-11 Canister half - Pass Details

Date: 27 November 2020
Orbit: 1524 x 1684 km, 47.3° (Epoch: 21 January)

Event Time Altitude Azimuth Distance (km) Brightness Sun altitude
Rises 09:29:19 0° 271° (W) 4,921 11.3 13.5°
Reaches altitude 10° 09:32:30 10° 271° (W) 3,921 10.8 13.8°
Maximum altitude 09:42:36 89° 185° (S) 1,636 9.5 14.8°
Drops below altitude 10° 09:52:21 10° 96° (E) 3,798 11.7 15.6°
Sets 09:55:23 0° 97° (E) 4,761 12.1 15.9°
